User: anonymous   Login
Location: Unspecified
(0.0000°N, 0.0000°E)
Time: 02:38:54
(UTC+01:00)
Language:

JASON 2 - Orbit

View from above orbital plane
View from above orbital plane
View from above satellite
View from above satellite

Ground track
Ground track

The orbit data is extracted from the following two-line orbital elements,

1 33105U 08032A   17326.61220022 -.00000061 +00000-0 +51483-5 0  9993
2 33105 066.0381 149.0182 0007422 267.7028 173.5219 12.87626765440927
Epoch (UTC): 22 November 2017 14:41:34
Eccentricity: 0.0007422
inclination: 66.0381°
perigee height: 1305 km
apogee height: 1316 km
right ascension of ascending node: 149.0182°
argument of perigee: 267.7028°
revolutions per day: 12.87626765
mean anomaly at epoch: 173.5219°
orbit number at epoch: 44092

The dashed part of the orbit path shows where the satellite is in the earth's shadow,  

DLR